EHI
0 0 0 0 0 0 0 0 0 0 0 0 0 2 5 5 5 7 11 21 35 37 30 29 29 23 13 6 4 2 2 2 1 0 0 0 1 2 3 3 2 1 0 0 0 0 0 1 1
0 0 0 0 0 0 0 0 0 0 0 0 1 3 5 4 4 7 11 21 32 32 27 28 31 25 15 8 6 4 3 3 2 2 2 1 1 2 3 4 3 2 1 1 0 0 1 2 2
0 0 0 0 0 0 0 0 0 0 0 0 2 6 6 5 5 7 11 20 28 29 28 32 35 29 19 12 8 5 4 3 3 4 4 4 3 4 5 5 4 3 3 2 1 0 1 2 3
0 0 0 0 0 0 0 0 0 0 1 2 6 9 9 6 5 8 12 17 25 31 34 38 40 34 23 16 10 7 5 5 4 4 5 5 6 6 6 7 5 4 3 3 1 1 1 3 3
0 0 0 0 0 0 0 0 0 1 2 5 9 12 12 9 7 8 10 13 24 36 41 40 41 38 29 22 16 10 7 6 5 5 6 7 8 8 8 8 7 5 4 4 3 2 2 3 4
0 0 0 0 0 0 0 0 0 1 3 5 11 16 15 11 10 10 9 11 24 39 43 39 39 38 33 28 21 14 8 6 6 7 9 10 11 11 9 9 8 7 6 4 3 3 2 3 5
0 0 0 0 0 1 1 1 2 3 4 6 10 16 17 15 14 13 11 12 25 39 41 36 34 35 33 29 25 20 14 10 9 11 12 13 13 11 9 8 8 8 7 6 4 4 4 4 6
0 0 0 0 1 2 2 3 5 7 9 8 10 16 21 22 19 18 19 21 29 38 36 32 32 32 29 27 27 26 22 17 15 14 15 15 12 9 8 8 9 10 9 9 8 8 7 7 7
0 0 0 0 2 3 4 4 7 10 12 11 13 21 28 29 25 25 29 33 37 37 30 27 30 30 26 25 28 29 26 20 15 13 14 12 9 7 7 10 14 16 15 14 13 12 11 10 9
0 0 0 1 3 4 4 5 8 10 11 12 19 27 32 31 28 29 34 40 41 35 26 22 25 27 25 27 32 31 25 19 14 11 12 12 9 7 8 14 21 23 21 18 16 15 13 10 8
0 0 0 2 3 3 4 6 8 9 11 17 25 31 31 28 26 28 34 40 40 34 26 22 22 24 26 31 35 32 25 22 19 16 17 17 14 13 15 20 25 25 22 19 18 17 13 9 7
0 0 1 1 3 3 5 7 10 12 15 20 26 28 28 25 24 26 32 38 39 35 31 29 29 30 32 35 34 30 29 29 28 26 26 25 22 20 22 25 25 23 20 18 19 19 14 9 7
0 1 2 3 4 5 6 8 11 14 16 17 17 20 24 26 26 27 32 38 41 41 38 37 40 43 42 40 35 31 32 33 32 30 29 29 27 24 24 26 25 20 17 17 17 17 14 10 8
0 1 2 5 7 7 7 7 9 13 14 10 8 13 20 27 31 33 36 41 46 47 46 46 49 50 48 45 42 37 35 34 32 32 32 30 27 25 25 25 23 18 15 16 16 14 13 11 10
0 0 1 4 6 6 5 4 6 10 10 7 6 12 19 27 35 40 43 46 49 51 52 51 51 51 50 48 46 43 39 36 34 34 33 30 28 26 25 24 21 17 15 16 15 14 13 12 12
0 0 0 1 2 2 2 4 6 8 8 8 10 14 20 27 36 42 45 48 51 52 52 50 48 48 49 48 46 44 40 38 37 35 32 28 25 24 22 21 19 16 15 15 13 12 13 13 11
0 0 0 0 0 0 1 4 7 7 7 9 12 16 21 28 35 39 41 46 50 50 48 45 45 47 47 46 44 43 40 37 36 35 31 26 22 20 18 18 18 16 13 12 11 11 13 12 9
0 0 0 0 0 0 1 4 6 6 5 7 11 16 23 29 35 37 38 41 45 46 44 41 41 45 45 42 40 39 36 33 31 31 30 26 23 19 15 15 16 16 13 12 12 12 11 9 7
0 0 0 0 0 0 1 3 5 5 4 5 10 16 22 28 33 35 35 36 38 40 40 37 36 38 38 38 36 34 31 27 25 25 25 23 22 19 14 12 14 15 14 13 11 10 9 7 5
0 0 0 0 0 0 1 3 6 6 6 6 11 16 21 26 30 32 34 35 35 35 34 32 30 28 28 29 30 28 26 23 21 20 19 18 18 17 14 13 14 14 12 9 8 7 5 4 2
0 0 0 0 0 0 1 3 5 7 7 7 10 14 18 22 26 30 33 34 34 33 30 28 26 24 22 22 22 21 22 20 17 17 17 17 17 15 14 12 12 11 8 6 6 5 3 1 1
0 0 0 0 0 0 1 2 4 7 8 7 8 12 15 18 23 29 33 33 32 30 28 26 24 22 21 19 18 17 16 15 15 16 16 16 15 13 11 9 9 8 7 6 5 4 2 1 0
0 0 0 0 0 0 0 0 2 6 8 7 8 11 13 17 22 28 31 31 29 28 28 26 23 22 21 19 18 16 12 11 12 13 13 12 11 10 7 6 6 6 6 5 4 4 3 2 1
0 0 0 0 0 0 0 0 2 6 7 7 9 12 15 19 23 27 29 28 26 27 27 24 21 21 21 19 16 13 10 8 7 9 10 9 7 6 5 4 4 5 4 3 3 4 4 2 1
0 0 0 0 0 0 0 0 2 5 7 9 10 13 17 21 23 23 23 22 21 23 23 21 19 19 19 16 13 9 7 6 5 5 7 6 5 4 4 3 3 3 2 1 1 3 4 4 2
0 0 0 0 0 0 0 0 2 6 10 11 11 14 17 18 18 17 16 15 16 18 19 19 17 16 15 13 10 7 5 4 3 4 4 4 3 3 3 3 3 3 3 1 1 2 4 4 3
0 0 0 0 0 0 0 1 3 7 10 10 10 12 14 14 13 12 12 11 13 14 15 15 14 15 14 12 9 6 4 3 3 3 4 3 3 3 3 3 3 3 3 2 1 2 2 2 2
0 0 0 0 0 0 0 1 3 6 8 8 8 10 13 13 12 12 12 12 12 12 14 13 12 13 12 10 8 6 4 3 3 4 4 4 3 3 3 3 3 3 3 3 3 2 1 1 2
0 0 0 0 0 0 0 0 1 4 6 6 6 9 13 13 12 13 13 12 11 12 13 12 11 12 11 9 8 7 5 4 3 3 4 3 3 3 3 3 3 3 3 3 3 3 2 1 2
0 0 0 0 0 0 0 0 1 3 4 5 6 8 11 11 11 13 13 10 9 11 11 11 12 12 11 9 9 8 6 4 3 3 3 3 3 3 3 3 3 3 3 3 3 3 2 1 1
Wind_Speed
8 11 10 8 7 7 7 5 0 5 7 8 7 8 10 12 10 9 9 14 19 20 17 16 14 13 12 11 10 9 9 9 8 8 7 7 6 6 6 5 4 4 3 3 2 1 1 1 0
9 12 10 7 8 6 5 2 2 6 9 7 6 7 10 12 12 11 12 15 19 19 16 15 15 13 12 11 10 9 9 8 8 8 7 7 6 5 5 4 4 3 2 2 1 1 0 1 1
12 15 9 7 9 7 5 1 5 8 8 5 7 8 8 9 10 9 12 15 18 18 16 16 15 13 12 11 10 9 9 8 8 7 7 6 6 5 4 4 3 3 2 1 1 1 1 1 2
9 9 7 8 9 6 5 1 5 5 6 4 6 8 9 8 7 12 14 14 16 18 18 16 15 14 12 11 10 9 9 8 7 7 7 6 5 5 4 3 3 2 2 2 2 2 2 2 3
10 8 11 10 9 5 3 2 2 1 4 4 5 10 10 10 11 14 13 12 14 17 18 16 15 14 12 11 10 9 8 8 7 7 6 6 5 4 4 3 3 2 2 2 3 3 3 3 4
8 8 10 9 7 5 3 2 2 1 2 5 6 9 9 11 10 10 12 11 13 17 18 15 16 15 13 12 10 9 8 8 7 7 6 5 5 4 4 4 3 3 3 3 3 3 4 4 5
11 10 11 10 6 4 1 1 2 1 2 3 3 6 9 11 10 8 9 10 13 16 17 14 13 13 12 12 11 10 9 8 7 7 6 6 6 6 5 5 4 4 4 4 4 5 6 6 6
11 10 13 11 7 3 1 0 3 1 2 3 3 5 9 12 11 10 9 9 11 13 14 13 13 12 11 10 11 11 9 9 8 8 7 7 7 7 7 6 6 6 6 6 6 7 7 8 9
13 11 10 10 6 2 2 2 2 3 3 5 5 9 13 14 12 10 9 8 9 10 10 11 12 11 10 10 11 11 10 8 8 7 7 6 5 6 7 8 8 8 8 8 8 8 9 10 11
9 9 9 6 5 3 2 1 2 1 3 4 7 11 14 13 11 10 9 9 9 10 8 8 9 10 8 7 9 7 7 7 6 5 5 5 4 4 4 7 10 10 9 9 9 10 10 9 6
10 10 8 7 4 5 2 2 2 2 3 5 7 9 11 11 10 9 8 8 7 9 8 6 6 6 5 4 6 4 3 4 5 4 4 3 3 3 2 2 4 6 8 6 6 7 5 5 4
10 7 8 6 4 5 4 3 3 3 2 5 7 9 10 10 9 8 8 8 7 7 7 6 6 5 4 4 3 3 2 3 2 2 2 2 1 2 1 1 1 2 3 3 3 3 4 5 6
11 7 6 4 3 3 3 3 2 2 3 5 7 7 9 8 7 7 7 7 7 6 6 6 6 5 4 3 1 2 2 2 2 2 1 1 1 1 1 1 1 2 2 2 2 3 3 4 5
8 7 6 5 4 4 3 3 3 1 3 4 5 5 4 6 7 6 6 6 5 5 5 5 6 6 5 3 2 1 1 2 1 2 1 1 1 1 2 2 2 2 2 2 2 3 3 3 3
7 8 7 7 6 5 4 5 4 3 4 4 4 5 5 5 5 5 5 5 5 4 3 3 5 6 5 3 2 2 1 1 1 2 2 0 1 1 1 2 2 2 3 3 2 3 3 3 4
9 10 10 7 6 5 6 5 2 4 5 4 4 5 6 6 5 5 5 5 5 5 4 3 2 5 5 3 1 1 1 1 1 1 2 2 1 1 2 2 1 2 3 2 2 2 3 3 3
9 9 8 6 6 5 5 4 1 2 3 3 5 5 6 6 6 6 6 6 6 5 4 3 4 4 4 4 2 1 1 1 0 1 1 1 0 1 2 2 2 3 2 2 4 2 2 3 4
8 7 7 6 4 6 5 2 2 3 3 3 4 5 5 6 7 7 6 6 5 5 5 4 4 3 2 2 2 1 1 1 1 1 1 1 1 1 2 2 2 3 2 2 2 3 3 3 3
9 8 8 7 3 5 5 3 3 4 4 2 1 3 5 6 7 7 6 6 6 5 5 5 4 3 2 1 1 1 1 1 1 1 1 1 1 2 2 2 3 3 2 3 3 3 4 3 2
7 7 8 6 4 5 6 6 5 4 4 4 3 3 4 6 7 7 6 5 5 5 5 4 4 3 2 1 0 0 0 1 1 1 1 1 1 2 2 2 2 3 2 2 3 3 3 3 2
7 8 8 7 7 8 8 8 6 5 3 3 4 4 4 4 6 7 6 6 6 5 4 3 4 3 2 1 0 0 0 0 0 1 1 1 0 0 1 2 2 3 3 3 3 2 3 3 3
7 9 9 10 9 7 8 7 3 3 4 4 3 3 3 4 5 5 5 5 5 4 4 4 3 3 2 1 0 0 0 1 0 0 1 1 0 0 1 2 3 3 3 3 4 3 3 3 3
9 11 11 11 11 10 9 7 1 3 4 3 3 2 3 3 4 5 5 5 5 4 4 4 4 3 2 1 1 0 1 1 1 1 1 0 0 0 1 1 2 3 2 3 3 3 3 2 3
9 11 12 11 9 9 5 5 1 2 2 2 3 3 4 3 4 5 5 5 4 4 4 5 4 3 2 2 1 0 1 1 1 1 0 1 0 0 1 1 2 2 2 3 3 2 3 2 3
8 8 6 6 4 5 6 4 2 4 4 3 4 4 4 3 4 4 4 4 4 4 4 4 4 3 3 2 1 0 0 1 0 1 1 0 0 0 1 1 1 2 2 2 2 2 2 2 2
7 7 4 4 7 8 7 1 4 6 7 6 7 7 5 4 3 2 4 4 3 3 3 3 3 3 2 2 2 0 1 1 0 0 1 0 0 1 1 1 1 2 2 3 2 2 2 2 2
6 5 6 7 10 9 4 1 5 7 8 7 6 5 4 3 2 2 3 3 3 4 3 3 3 3 3 2 2 1 1 1 1 1 1 1 1 0 1 1 2 2 2 2 3 2 2 2 2
5 6 4 5 6 7 7 4 3 5 5 5 4 4 4 4 3 3 2 3 3 3 3 3 2 2 2 2 1 1 1 0 1 1 1 1 1 1 1 1 1 2 2 2 2 3 2 2 2
6 5 5 5 6 7 8 4 4 5 5 5 5 5 4 4 3 2 2 3 3 3 3 3 3 2 2 1 1 1 1 1 1 1 1 1 1 2 2 2 2 2 2 2 2 3 3 3 3
5 7 7 6 7 7 8 4 4 6 6 6 5 4 3 3 2 2 2 1 2 3 2 2 2 2 2 1 1 1 1 1 1 1 1 1 1 2 2 2 2 2 2 2 3 4 4 4 4
Wind_Direction
247 245 236 245 243 241 253 259 237 94 75 65 57 55 60 49 65 93 117 119 116 121 129 130 128 129 129 127 126 129 132 134 137 136 134 134 135 133 129 128 126 127 131 130 124 116 102 84 17
255 253 241 242 252 251 255 235 88 80 89 91 86 77 71 66 78 103 114 119 122 125 133 132 130 130 130 130 130 132 134 136 138 139 139 140 143 142 141 142 141 143 145 142 137 146 328 317 303
258 255 252 242 247 258 277 53 79 84 93 94 82 67 62 72 85 105 119 128 127 129 129 128 133 132 133 134 135 136 137 137 139 141 143 144 145 147 152 155 159 165 175 189 208 231 272 289 288
248 237 235 251 254 244 268 30 65 88 92 81 86 82 77 77 95 114 127 134 131 130 128 132 135 135 135 137 138 140 140 140 143 146 148 150 151 154 160 166 174 180 199 226 237 248 262 271 277
240 246 239 249 253 237 225 92 96 99 111 89 81 92 90 93 107 119 134 137 133 128 128 135 137 138 139 141 143 146 147 147 149 151 155 157 163 168 176 185 192 196 217 242 250 252 254 255 263
237 241 249 250 249 242 191 164 157 96 92 102 104 104 100 103 107 125 135 137 129 125 127 136 140 142 144 146 148 149 150 151 153 158 162 167 173 180 189 197 201 212 228 241 251 251 252 254 258
250 262 267 265 252 234 173 137 104 102 41 61 93 102 112 116 122 134 133 132 126 126 130 142 147 149 150 151 153 155 156 157 160 165 171 179 187 193 200 202 205 215 226 239 249 250 253 255 256
253 274 277 272 262 259 101 344 109 79 63 58 83 110 123 130 139 142 139 134 129 128 135 147 153 155 160 160 160 161 162 166 171 178 183 191 199 203 207 206 210 221 229 239 248 252 253 254 253
248 258 267 269 267 296 41 344 72 90 76 56 55 87 118 133 143 147 145 141 131 128 140 151 153 156 166 164 160 165 168 175 181 188 196 202 212 211 207 213 208 218 226 235 243 246 250 253 251
237 255 271 294 309 327 42 8 3 112 82 80 82 96 123 136 149 154 156 152 142 142 153 155 151 156 167 162 152 169 176 175 190 187 192 207 223 227 222 199 205 215 224 233 240 247 251 249 248
237 256 288 295 328 322 336 7 358 35 69 100 117 123 135 144 156 159 157 149 149 151 155 154 145 150 155 144 147 164 173 169 187 192 201 209 228 232 217 198 197 211 222 228 234 238 241 245 249
247 256 275 292 334 318 310 324 348 42 45 105 130 139 146 155 161 159 154 149 156 155 155 149 138 139 138 125 138 152 159 151 167 172 198 222 238 265 273 271 238 226 224 228 240 239 242 253 258
253 255 264 279 275 281 299 298 315 58 87 106 122 141 151 159 155 150 143 149 151 146 148 146 136 132 128 118 146 149 150 153 153 144 174 269 254 268 272 258 264 275 272 253 260 257 260 263 267
256 260 261 257 258 250 258 265 251 147 125 118 130 146 156 143 136 137 139 136 130 136 146 144 137 137 135 139 154 153 176 145 146 128 144 248 281 294 301 294 286 286 301 298 276 273 270 270 274
259 260 254 243 237 234 245 252 232 139 125 125 147 147 139 124 123 122 125 121 115 113 116 131 147 137 140 151 172 170 162 153 150 136 133 161 286 296 294 278 278 294 292 289 286 296 289 282 281
250 244 247 236 219 212 232 254 200 156 151 162 169 156 141 128 128 119 120 110 107 106 103 98 130 129 134 136 147 125 122 112 120 130 139 160 243 292 283 277 288 293 284 282 278 272 292 288 289
248 250 255 242 211 216 233 249 166 147 168 168 166 153 147 140 130 109 98 96 105 105 100 93 82 100 124 135 141 146 125 106 144 124 102 86 263 294 298 288 290 285 282 282 288 292 285 282 282
272 274 272 264 212 232 243 238 186 174 195 192 171 146 139 133 122 112 106 106 102 104 102 95 91 87 102 127 149 171 175 183 185 121 95 58 0 340 312 285 287 293 291 288 289 294 277 271 275
282 289 292 283 247 247 250 237 232 211 193 193 185 130 132 116 115 114 117 120 121 120 115 113 109 104 103 124 180 191 191 187 153 115 83 70 32 335 299 316 312 301 296 297 301 290 290 282 277
289 290 287 293 300 281 265 247 232 219 195 170 144 115 115 127 123 125 130 131 129 126 123 123 118 115 108 87 184 214 232 204 132 92 90 60 41 333 326 325 309 309 301 302 297 294 291 296 302
292 286 285 289 282 261 262 258 225 181 162 134 115 109 109 128 130 132 137 141 131 130 132 124 115 106 93 58 64 5 217 272 128 167 125 96 71 352 338 339 327 320 312 312 302 303 307 304 306
283 290 295 288 278 276 265 273 205 155 117 100 93 97 96 93 109 116 125 129 135 137 135 127 120 117 115 152 147 238 213 240 94 55 103 54 44 50 14 353 346 326 328 332 324 345 315 307 309
310 312 296 285 278 274 267 269 182 103 70 87 98 74 78 85 108 116 115 120 129 132 128 124 119 117 116 109 116 163 345 338 354 37 80 251 266 66 24 15 345 328 336 338 334 329 321 314 317
305 304 293 281 271 268 290 297 40 114 110 84 92 86 89 91 102 113 117 116 115 121 127 126 126 123 123 131 135 148 0 345 357 7 48 279 149 90 21 15 351 333 337 328 320 315 321 325 329
316 318 322 325 292 292 313 309 89 99 100 93 83 82 80 96 99 112 119 118 117 113 119 132 135 142 140 137 113 40 351 295 139 273 215 255 302 96 24 0 336 329 320 310 317 314 316 322 321
309 312 316 304 303 296 292 328 97 92 84 73 75 79 76 83 85 103 112 115 123 125 136 131 138 135 136 138 133 104 347 305 356 324 295 275 301 58 39 324 318 317 318 326 325 315 320 333 316
288 306 318 299 293 295 310 25 100 71 73 64 57 73 81 83 79 95 106 106 113 120 122 127 116 125 136 147 147 137 96 335 338 333 318 342 356 346 342 305 309 310 316 319 319 322 325 325 312
297 319 326 320 315 309 311 337 45 52 58 48 43 32 48 64 60 75 104 109 115 119 109 104 115 117 134 163 188 151 148 271 283 296 330 325 323 329 284 289 298 298 307 323 327 316 313 310 302
325 328 346 322 304 314 311 332 57 58 43 44 29 23 29 48 47 54 83 108 117 121 120 118 123 144 147 139 172 171 187 244 249 243 294 287 308 299 298 312 306 305 309 320 312 305 307 309 312
319 336 337 319 311 305 302 321 55 51 39 43 31 21 23 56 52 39 53 103 125 121 122 126 147 152 160 165 155 209 226 257 260 266 288 302 297 298 313 313 305 307 326 329 315 313 321 315 315